[[{"header":{"parameterUnit":"m.s-1","parameterCategory":1,"la1":30.2991,"la2":30.254,"lo1":-89.0895,"lo2":-89.0444,"dy":0.0017,"dx":0.0017,"nx":28,"ny":28,"refTime":"2023-10-13T03:00:00:Z","depth":0,"parameterNumber":2,"parameterNumberName":"U-component_of_WINDS"},"data":[0,0,0,0,0,0,0,0,0,0,0,0,0,0,0,0,0,0,0,0,0,0,0,0,0,0,0,0,0,0,0,0,0,0,0,0,0,0,0,0,0,0,0,0,0,0,0,0,0,0,0,0,0,0,0,0,0,0,4.6654,4.6653,0,4.6616,4.6615,4.6615,4.654,4.6538,4.6537,4.6535,4.6496,4.6497,4.6497,0,0,0,0,0,0,0,0,0,0,0,0,0,4.6664,4.6664,4.6654,4.6653,4.6653,4.6616,4.6615,4.6615,4.654,4.6538,4.6536,4.6535,4.6496,4.6497,4.6497,0,0,0,0,0,0,0,0,0,0,0,0,0,4.6646,4.6664,4.6654,4.6611,4.6607,4.6616,4.6615,4.6615,4.654,4.6538,4.6536,4.6534,4.6496,4.6497,4.6497,4.6545,0,0,4.6499,4.6499,0,0,0,0,0,0,0,0,4.6647,4.6646,4.6618,4.6614,4.6609,4.658,4.6605,4.6591,4.6541,4.6566,4.6535,4.6533,4.6526,4.6524,4.6522,4.6543,4.6542,4.6499,4.6499,4.6499,4.65,0,0,0,0,0,0,0,4.6649,4.6647,4.6639,4.6618,4.6612,4.6595,4.659,4.6602,4.6559,4.6563,4.6558,4.6554,4.6523,4.6521,4.652,4.6541,4.6499,4.6499,4.65,4.65,4.6605,4.6608,0,0,0,0,0,0,4.6656,4.6649,4.664,4.6638,4.6623,4.6596,4.6591,4.6592,4.6558,4.6551,4.6556,4.6551,4.6522,4.652,4.6519,4.6576,4.6499,4.65,4.65,4.6603,4.6606,4.6608,0,0,0,0,0,0,4.6656,4.6656,4.6641,4.6642,4.6638,4.6598,4.66,4.6592,4.659,4.6553,4.6545,4.6562,4.652,4.6518,4.654,4.6574,4.65,4.6501,4.66,4.6604,4.6607,4.669,0,0,0,0,0,0,4.6657,4.6656,4.6673,4.6643,4.6639,4.6663,4.6602,4.6593,4.6591,4.6584,4.6557,4.655,4.6518,4.654,4.6541,4.6573,4.6501,4.6597,4.6602,4.6606,4.6684,4.6696,4.6706,0,0,0,0,0,4.6658,4.6697,4.6675,4.6674,4.6659,4.6665,4.6663,4.6625,4.6594,4.6612,4.6589,4.6551,4.657,4.6543,4.6543,4.6576,4.6594,4.66,4.6606,4.6679,4.6694,4.6706,0,0,0,0,0,0,4.6732,4.6692,4.6667,4.6697,4.6686,4.6652,4.6673,4.6641,4.6638,4.6631,4.6585,4.6579,4.6609,4.6594,4.6565,4.6623,4.6576,4.6582,4.6632,4.6646,4.6657,4.6661,4.6501,0,0,0,0,0,4.6752,4.676,4.6725,4.6755,4.6751,4.6713,4.6714,4.6687,4.6673,4.6667,4.6645,4.6633,4.6637,4.664,4.6641,4.6681,4.6676,4.6704,4.6716,4.6725,4.6731,4.6756,4.677,4.6627,4.6627,4.6627,0,0,4.6793,4.6773,4.678,4.677,4.6757,4.6768,4.6709,4.6722,4.673,4.6669,4.669,4.6674,4.6657,4.669,4.6704,4.6679,4.677,4.6732,4.674,4.6741,4.6764,4.6777,4.6789,4.6631,4.663,4.6629,0,0,4.6875,4.6858,4.6884,4.6874,4.6856,4.6832,4.6838,4.6811,4.6798,4.6818,4.6774,4.6783,4.6789,4.6781,4.6777,4.686,4.6827,4.6861,4.6921,4.6945,4.6957,4.6967,4.7,4.7012,4.6868,4.6868,4.6868,0,4.6929,4.6943,4.6902,4.6919,4.6917,4.6863,4.6891,4.6882,4.6866,4.6866,4.6839,4.6848,4.6833,4.6866,4.6887,4.6884,4.6892,4.6865,4.6958,4.6968,4.6976,4.7008,4.702,4.6872,4.6872,4.6871,4.6871,0,4.7012,4.7022,4.7045,4.7033,4.7034,4.7056,4.702,4.7025,4.6999,4.6978,4.7001,4.6982,4.698,4.6985,4.6957,4.7015,4.7001,4.6966,4.6919,4.6995,4.7025,4.7036,4.6879,4.6877,4.6876,4.6875,0,0,4.7138,4.7106,4.7115,4.7111,4.7089,4.7097,4.7118,4.7117,4.7125,4.7115,4.7134,4.7142,4.7112,4.7108,4.7079,4.7101,4.7173,4.7064,4.7063,4.7089,4.724,4.7269,4.7283,4.715,4.7152,4.7154,4.7243,0,4.7218,4.7252,4.7218,4.726,4.7271,4.7222,4.724,4.723,4.7212,4.722,4.7199,4.7207,4.7164,4.7162,4.7181,4.7161,4.7204,4.7153,4.717,4.7171,4.7179,4.7298,4.7327,4.7412,4.7254,4.7255,4.7257,0,4.7315,4.7313,4.7357,4.7336,4.734,4.7357,4.7356,4.7363,4.7352,4.7337,4.7335,4.7302,4.7323,4.7275,4.7305,4.7272,4.7277,4.7268,4.727,4.7273,4.7221,4.7307,4.7438,4.7452,4.7273,4.7272,4.7271,0,4.7409,4.7416,4.7445,4.7442,4.7417,4.7432,4.7422,4.7408,4.7411,4.741,4.7412,4.7413,4.7414,4.7417,4.7385,4.7353,4.7422,4.737,4.7413,4.7414,4.7431,4.7431,4.7568,4.7429,4.7429,4.7428,4.7428,0,4.7503,4.7533,4.7487,4.7505,4.7538,4.7499,4.7532,4.7518,4.7507,4.7522,4.7478,4.7493,4.7449,4.7461,4.7437,4.7468,4.7468,4.7459,4.7453,4.7465,4.7467,4.7469,4.7464,4.7432,4.7431,4.743,4.743,0,4.7614,4.7584,4.7613,4.7588,4.7583,4.7609,4.7588,4.7605,4.7584,4.7605,4.7607,4.7575,4.7587,4.7556,4.7562,4.7546,4.7593,4.7575,4.7597,4.7593,4.7639,4.7637,4.7786,4.7805,4.765,4.7652,4.7653,0,4.7678,4.77,4.7679,4.7687,4.768,4.7692,4.7696,4.7658,4.7664,4.7655,4.7674,4.7682,4.7687,4.7708,4.7686,4.7692,4.7677,4.7728,4.7677,4.769,4.7682,4.7683,4.7687,4.774,4.7742,4.7743,4.7745,0,4.7796,4.7781,4.7788,4.7792,4.7798,4.7798,4.7795,4.7804,4.7764,4.7774,4.7786,4.779,4.7798,4.7808,4.781,4.7801,4.7768,4.7761,4.7772,4.7786,4.78,4.7797,4.763,4.7758,4.7757,4.7756,4.7755,4.7754,4.7888,4.7907,4.7897,4.7907,4.7902,4.7901,4.7917,4.79,4.7909,4.7914,4.789,4.7909,4.79,4.7898,4.7894,4.7908,4.7885,4.79,4.7904,4.7909,4.7919,4.7795,4.7908,4.7907,4.7907,4.7907,4.7906,0,4.8007,4.7999,4.8009,4.8008,4.8017,4.7985,4.7981,4.7992,4.8008,4.8003,4.8009,4.8026,4.8036,4.8016,4.8023,4.804,4.8025,4.8043,4.8043,4.8043,4.7937,4.7929,4.8055,4.8055,4.8055,4.8055,4.8055,4.8055,4.8071,4.8103,4.8088,4.8118,4.8109,4.8128,4.8129,4.8129,4.8125,4.8146,4.8155,4.8141,4.8131,4.8138,4.8147,4.8141,4.8148,4.8172,4.8162,4.8064,4.805,4.8036,4.8028,4.8173,4.8173,4.8266,4.8267,4.8268]},{"header":{"parameterUnit":"m.s-1","parameterCategory":1,"la1":30.2991,"la2":30.254,"lo1":-89.0895,"lo2":-89.0444,"dy":0.0017,"dx":0.0017,"nx":28,"ny":28,"refTime":"2023-10-13T03:00:00:Z","depth":0,"parameterNumber":3,"parameterNumberName":"V-component_of_WINDS"},"data":[0,0,0,0,0,0,0,0,0,0,0,0,0,0,0,0,0,0,0,0,0,0,0,0,0,0,0,0,0,0,0,0,0,0,0,0,0,0,0,0,0,0,0,0,0,0,0,0,0,0,0,0,0,0,0,0,0,0,0.1963,0.1965,0,0.2184,0.2187,0.2189,0.2193,0.219,0.2187,0.2184,0.242,0.2429,0.2438,0,0,0,0,0,0,0,0,0,0,0,0,0,0.1551,0.1559,0.1963,0.1966,0.1968,0.2184,0.2187,0.219,0.2193,0.219,0.2186,0.2183,0.2418,0.2428,0.2439,0,0,0,0,0,0,0,0,0,0,0,0,0,0.1747,0.1561,0.1962,0.1996,0.2001,0.2183,0.2187,0.2191,0.2194,0.219,0.2185,0.2181,0.2414,0.2427,0.244,0.2607,0,0,0.2481,0.2487,0,0,0,0,0,0,0,0,0.1736,0.1762,0.1988,0.1994,0.2,0.2156,0.2128,0.2331,0.2195,0.2121,0.2184,0.2179,0.2337,0.2356,0.2407,0.2618,0.2628,0.2482,0.249,0.2496,0.25,0,0,0,0,0,0,0,0.1722,0.1753,0.2051,0.1991,0.1999,0.2002,0.2025,0.2167,0.225,0.2127,0.2128,0.2153,0.2339,0.2394,0.2413,0.2632,0.2482,0.2494,0.2502,0.2507,0.2989,0.2994,0,0,0,0,0,0,0.1701,0.1741,0.2044,0.2057,0.1854,0.2013,0.2039,0.2111,0.2248,0.2265,0.2157,0.2153,0.2373,0.2397,0.2421,0.2624,0.2496,0.2508,0.2516,0.2985,0.299,0.2996,0,0,0,0,0,0,0.1692,0.1728,0.2035,0.19,0.1939,0.2024,0.2105,0.2117,0.2172,0.2271,0.2286,0.2197,0.2371,0.2402,0.256,0.2632,0.2514,0.2527,0.2979,0.2986,0.2993,0.3032,0,0,0,0,0,0,0.168,0.1725,0.1787,0.1901,0.1946,0.2168,0.2109,0.2124,0.2194,0.2191,0.2313,0.2329,0.237,0.254,0.2573,0.2649,0.2537,0.2973,0.2982,0.2991,0.3025,0.304,0.3053,0,0,0,0,0,0.1665,0.1792,0.179,0.1827,0.2026,0.2172,0.2198,0.224,0.22,0.2265,0.2328,0.2325,0.2619,0.2556,0.2593,0.2674,0.2969,0.298,0.299,0.3019,0.3037,0.3053,0,0,0,0,0,0,0.1689,0.1808,0.1807,0.1974,0.2062,0.2172,0.2255,0.2258,0.2363,0.2356,0.2406,0.2434,0.259,0.2648,0.2576,0.2842,0.2789,0.2808,0.2798,0.2817,0.283,0.2813,0.2548,0,0,0,0,0,0.1712,0.1818,0.1918,0.2055,0.2099,0.2169,0.2235,0.2259,0.2354,0.2392,0.2467,0.2562,0.2675,0.2749,0.2859,0.3033,0.306,0.3108,0.3121,0.3132,0.3148,0.3243,0.3265,0.3031,0.3031,0.3031,0,0,0.1764,0.1842,0.1907,0.2062,0.2133,0.2244,0.2201,0.2321,0.2404,0.2412,0.2563,0.2622,0.2731,0.2897,0.2974,0.295,0.3218,0.3146,0.3154,0.3164,0.3256,0.3279,0.3298,0.3038,0.3037,0.3036,0,0,0.1914,0.1984,0.2105,0.2176,0.2283,0.2329,0.2358,0.2467,0.2505,0.2657,0.2665,0.2766,0.296,0.3037,0.3102,0.3278,0.328,0.3313,0.3386,0.3478,0.3497,0.3513,0.3575,0.3597,0.3328,0.3329,0.3329,0,0.1966,0.213,0.2168,0.2286,0.2354,0.2363,0.2487,0.2555,0.2694,0.2742,0.2713,0.2955,0.303,0.3213,0.3255,0.3308,0.3343,0.33,0.349,0.3507,0.3524,0.3583,0.3607,0.3332,0.3331,0.3331,0.3331,0,0.2188,0.2301,0.2387,0.2516,0.2594,0.2715,0.2773,0.2848,0.2865,0.2914,0.3069,0.3158,0.3285,0.333,0.335,0.3516,0.3498,0.3479,0.3427,0.3548,0.3605,0.3629,0.3336,0.3335,0.3334,0.3333,0,0,0.236,0.2506,0.2537,0.2595,0.2713,0.2803,0.2924,0.3045,0.3108,0.3204,0.3307,0.347,0.3452,0.3525,0.3554,0.3635,0.3767,0.3606,0.3609,0.3632,0.3955,0.3968,0.3993,0.3769,0.3773,0.3777,0.3945,0,0.2522,0.2734,0.2771,0.2958,0.3063,0.3071,0.3177,0.3262,0.3311,0.3409,0.3465,0.3579,0.3547,0.3591,0.3671,0.3734,0.3833,0.3722,0.3867,0.3872,0.3838,0.4024,0.4038,0.4193,0.3968,0.3972,0.3975,0,0.274,0.2836,0.3032,0.3133,0.3179,0.3273,0.3385,0.3479,0.3576,0.3605,0.3685,0.3704,0.3832,0.3773,0.395,0.3874,0.3936,0.3975,0.3982,0.3997,0.393,0.4043,0.4243,0.4266,0.401,0.4008,0.4005,0,0.2844,0.3024,0.3163,0.3213,0.3335,0.3401,0.3455,0.3547,0.3617,0.3716,0.3762,0.3877,0.3939,0.4028,0.4077,0.403,0.4251,0.4197,0.428,0.4279,0.4327,0.4323,0.4539,0.4367,0.4367,0.4366,0.4366,0,0.3021,0.3141,0.3211,0.3297,0.3431,0.3473,0.3606,0.366,0.3741,0.3839,0.3855,0.3947,0.4006,0.4108,0.4147,0.4287,0.4316,0.4345,0.4354,0.4343,0.4339,0.4384,0.4374,0.4373,0.4371,0.437,0.4369,0,0.3161,0.3213,0.3365,0.3467,0.3495,0.3589,0.3678,0.3763,0.381,0.3934,0.3965,0.4041,0.4161,0.4218,0.4368,0.4394,0.4553,0.4556,0.4519,0.4522,0.4602,0.4593,0.4854,0.489,0.4695,0.4697,0.4698,0,0.327,0.3361,0.3471,0.3535,0.359,0.3696,0.3765,0.3811,0.3883,0.3998,0.407,0.4189,0.4286,0.4478,0.4548,0.4662,0.4667,0.475,0.4684,0.467,0.4667,0.466,0.4669,0.4762,0.4764,0.4766,0.4767,0,0.3457,0.3478,0.3576,0.3683,0.3764,0.3852,0.3938,0.3991,0.4051,0.4132,0.4252,0.4327,0.4478,0.4596,0.4715,0.4774,0.4781,0.4787,0.4812,0.4801,0.4776,0.4789,0.455,0.4781,0.4779,0.4778,0.4778,0.4777,0.3585,0.3665,0.3754,0.3863,0.3931,0.4011,0.4094,0.415,0.425,0.4374,0.4395,0.4523,0.4617,0.4776,0.4839,0.494,0.4922,0.4959,0.4968,0.4976,0.4979,0.4759,0.4963,0.4962,0.4962,0.4962,0.4962,0,0.3772,0.3828,0.3928,0.4045,0.4131,0.4126,0.4221,0.4294,0.4404,0.449,0.4584,0.4722,0.4837,0.4914,0.5031,0.5097,0.5103,0.5126,0.5122,0.5135,0.499,0.4956,0.5119,0.5119,0.5119,0.5119,0.5119,0.5119,0.3879,0.4014,0.4045,0.4215,0.4272,0.4394,0.4448,0.4522,0.459,0.4742,0.4835,0.4884,0.4967,0.5089,0.5194,0.5214,0.5256,0.5279,0.5298,0.5162,0.5145,0.513,0.5098,0.5288,0.5288,0.5434,0.5436,0.5437]}]]